SES-12

Last updated on Fri Dec 19 2025 00:02:52 GMT+0000 (Coordinated Universal Time)

1 43488U 18049A 25352.43009263 -.00000245 00000+0 00000+0 0 9993 2 43488 0.0182 22.5466 0002327 245.3878 69.1974 1.00272563 27603
UTC large
Height (km)
Speed (km/s)
/
Latitude / Longitude
Inclination (degrees)
Orbital Period (minutes)
Azimuth
Elevation
Range (km)
Doppler Factor

Next 0 passes for location: London (51.5072 / 0.1276)

Sorry there are no passes over London.